1505235601.15,42729,16.69,73206.3,3.65,2.95,2.95,0,*77
1505235602.36,42730,16.69,73204.5,3.67,2.95,2.95,0,*7D
1505235603.56,42731,16.69,73204.5,3.67,2.95,2.95,0,*7C
1505235604.74,42732,16.69,73204.5,3.65,2.95,2.95,0,*7D
1505235605.92,42733,16.69,73206.5,3.65,2.95,2.95,0,*7C
1505235607.1,42734,16.69,73202.3,3.65,2.95,2.95,0,*7B
1505235608.31,42735,16.69,73200.8,3.67,2.95,2.95,0,*78
1505235609.49,42736,16.69,73204.5,3.65,2.95,2.95,0,*79
1505235610.69,42737,16.69,73202.5,3.65,2.85,2.91,0,*7D
1505235611.9,42738,16.69,73200.3,3.67,2.91,2.91,0,*75
1505235613.08,42739,16.69,73202.3,3.65,2.91,2.91,0,*76
1505235614.32,42740,16.69,73200.0,3.65,2.81,2.81,0,*78
1505235615.55,42741,16.69,73202.3,3.65,2.73,2.81,0,*74
1505235616.76,42742,16.69,73202.8,3.65,2.81,2.91,0,*7B
1505235617.94,42743,16.69,73200.3,3.65,2.91,2.91,0,*7B
1505235619.17,42744,16.69,73200.3,3.63,2.89,2.89,0,*7A
1505235620.35,42745,16.69,73206.8,3.65,2.91,2.91,0,*7D
1505235621.53,42746,16.69,73200.3,3.65,2.91,2.91,0,*7E
1505235622.72,42747,16.69,73206.3,3.65,2.91,2.91,0,*7F
1505235623.9,42748,16.69,73206.0,3.65,2.95,2.91,0,*74
1505235625.08,42749,16.69,73202.8,3.65,2.95,2.91,0,*75
1505235626.26,42750,16.69,73204.3,3.65,2.95,2.91,0,*7D
1505235627.44,42751,16.69,73202.5,3.65,2.95,2.91,0,*7C
1505235628.64,42752,16.69,73204.3,3.67,2.95,2.91,0,*7D
1505235629.82,42753,16.69,73202.3,3.65,2.95,2.91,0,*7E
1505235631.03,42754,16.69,73206.0,3.67,2.95,2.91,0,*7B
1505235632.21,42755,16.69,73202.8,3.65,2.95,2.95,0,*7C
1505235633.39,42756,16.69,73202.3,3.65,2.95,2.95,0,*7F
1505235634.57,42757,16.69,73206.8,3.65,2.95,2.95,0,*7E
1505235635.75,42758,16.69,73204.8,3.65,2.95,2.91,0,*75
1505235636.93,42759,16.69,73204.0,3.65,2.95,2.95,0,*70
1505235638.11,42760,16.69,73200.3,3.65,2.95,2.95,0,*7A
1505235639.29,42761,16.69,73206.3,3.65,2.95,2.95,0,*7B
1505235640.47,42762,16.69,73204.3,3.65,2.91,2.95,0,*7C
1505235641.7,42763,16.69,73206.5,3.65,2.85,2.85,0,*79
1505235642.93,42764,16.69,73204.5,3.63,2.81,2.81,0,*78
1505235644.16,42765,16.69,73202.5,3.63,2.81,2.89,0,*71
1505235645.4,42766,16.69,73204.8,3.63,2.81,2.89,0,*72
1505235646.63,42767,16.69,73204.3,3.63,2.81,2.81,0,*7B
1505235647.81,42768,16.69,73206.3,3.65,2.91,2.91,0,*72
1505235648.99,42769,16.69,73204.5,3.65,2.95,2.91,0,*77
1505235650.17,42770,16.69,73200.3,3.65,2.95,2.91,0,*7F
1505235651.35,42771,16.69,73204.0,3.65,2.95,2.91,0,*7E
1505235652.54,42772,16.69,73202.3,3.65,2.91,2.91,0,*79
1505235653.72,42773,16.69,73202.8,3.65,2.95,2.91,0,*7C
1505235654.94,42774,16.69,73204.3,3.63,2.89,2.89,0,*79
1505235656.2,42775,16.69,73200.3,3.61,2.89,2.89,0,*7A
1505235657.42,42776,16.69,73204.8,3.63,2.89,2.89,0,*7B
1505235658.61,42777,16.69,73202.0,3.65,2.91,2.91,0,*7C
1505235659.79,42778,16.69,73202.0,3.65,2.91,2.91,0,*73
1505235661.02,42779,16.69,73200.3,3.63,2.89,2.89,0,*74
1505235662.2,42780,16.69,73202.5,3.65,2.91,2.95,0,*70
1505235663.38,42781,16.69,73202.8,3.63,2.91,2.91,0,*73
1505235664.56,42782,16.69,73200.3,3.63,2.91,2.91,0,*70
1505235665.73,42783,16.69,73204.5,3.63,2.91,2.95,0,*75
1505235666.91,42784,16.69,73202.0,3.63,2.91,2.91,0,*76
1505235668.09,42785,16.69,73204.5,3.63,2.91,2.91,0,*77
1505235669.29,42786,16.69,73202.0,3.61,2.91,2.91,0,*76
1505235670.49,42787,16.69,73206.8,3.61,2.91,2.91,0,*77
1505235671.7,42788,16.69,73204.3,3.61,2.91,2.91,0,*78
1505235672.87,42789,16.69,73202.8,3.63,2.91,2.91,0,*7B
1505235674.05,42790,16.69,73204.3,3.63,2.91,2.91,0,*73
1505235675.23,42791,16.69,73200.8,3.63,2.91,2.91,0,*72
1505235676.41,42792,16.69,73200.5,3.63,2.91,2.91,0,*71
1505235677.59,42793,16.69,73204.3,3.63,2.91,2.95,0,*74
1505235678.79,42794,16.69,73202.3,3.61,2.91,2.91,0,*75
1505235679.97,42795,16.69,73198.8,3.63,2.91,2.91,0,*76
1505235681.14,42796,16.69,73200.3,3.63,2.95,2.95,0,*75
1505235682.34,42797,16.69,73202.0,3.61,2.91,2.91,0,*76
1505235683.52,42798,16.69,73202.0,3.63,2.91,2.91,0,*7B
1505235684.7,42799,16.69,73200.0,3.63,2.91,2.91,0,*7A
1505235685.87,42800,16.69,73202.5,3.63,2.91,2.91,0,*75
1505235687.05,42801,16.69,73204.3,3.63,2.91,2.91,0,*74
1505235688.25,42802,16.69,73202.8,3.61,2.91,2.91,0,*75
1505235689.45,42803,16.69,73200.3,3.63,2.89,2.91,0,*7F
1505235690.65,42804,16.69,73200.8,3.63,2.89,2.91,0,*78
1505235691.85,42805,16.69,73202.8,3.61,2.91,2.91,0,*72
1505235693.1,42806,16.69,73200.8,3.61,2.89,2.89,0,*71
1505235694.33,42807,16.69,73200.5,3.63,2.89,2.89,0,*72
1505235695.56,42808,16.69,73202.8,3.63,2.89,2.89,0,*7D
1505235696.76,42809,16.69,73206.8,3.63,2.89,2.91,0,*75
1505235697.98,42810,16.69,73206.0,3.61,2.89,2.91,0,*7F
1505235699.18,42811,16.69,73202.8,3.63,2.89,2.91,0,*7C
1505235700.43,42812,16.69,73202.8,3.61,2.89,2.89,0,*74
1505235701.66,42813,16.69,73204.5,3.63,2.81,2.89,0,*7F
1505235702.89,42814,16.69,73200.3,3.63,2.89,2.89,0,*70
1505235704.12,42815,16.69,73202.8,3.63,2.89,2.89,0,*71
1505235705.32,42816,16.69,73204.3,3.63,2.89,2.91,0,*7B
1505235706.5,42817,16.69,73202.8,3.63,2.91,2.91,0,*73
1505235707.67,42818,16.69,73204.5,3.63,2.91,2.91,0,*7C
1505235708.85,42819,16.69,73202.0,3.63,2.91,2.91,0,*7D
1505235710.03,42820,16.69,73202.0,3.63,2.91,2.91,0,*77
1505235711.23,42821,16.69,73204.5,3.61,2.91,2.91,0,*74
1505235712.46,42822,16.69,73202.8,3.63,2.89,2.89,0,*75
1505235713.69,42823,16.69,73202.8,3.63,2.89,2.89,0,*74
1505235714.91,42824,16.69,73202.3,3.61,2.89,2.91,0,*78
1505235716.13,42825,16.69,73206.5,3.61,2.89,2.91,0,*79
1505235717.39,42826,16.69,73200.8,3.61,2.89,2.81,0,*7B
1505235718.64,42827,16.69,73204.0,3.61,2.89,2.81,0,*7A
1505235719.84,42828,16.69,73200.0,3.65,2.85,2.91,0,*7C
1505235721.09,42829,16.69,73202.8,3.61,2.89,2.89,0,*7C
1505235722.32,42830,16.69,73202.5,3.63,2.89,2.89,0,*76
1505235723.57,42831,16.69,73204.5,3.61,2.89,2.89,0,*75
1505235724.83,42832,16.69,73200.5,3.61,2.89,2.89,0,*76
1505235726.05,42833,16.69,73200.3,3.63,2.89,2.89,0,*75
1505235727.28,42834,16.69,73202.5,3.63,2.89,2.89,0,*72
1505235728.53,42835,16.69,73204.5,3.61,2.89,2.89,0,*71
1505235729.76,42836,16.69,73202.5,3.61,2.89,2.91,0,*7B
1505235730.98,42837,16.69,73202.8,3.61,2.89,2.91,0,*7A
1505235732.23,42838,16.69,73204.5,3.61,2.89,2.89,0,*7C
1505235733.46,42839,16.69,73202.5,3.61,2.91,2.89,0,*74
1505235734.69,42840,16.69,73202.0,3.61,2.91,2.89,0,*7A
1505235735.95,42841,16.69,73202.8,3.61,2.81,2.89,0,*7A
1505235737.2,42842,16.69,73204.3,3.61,2.89,2.81,0,*79
1505235738.45,42843,16.69,73204.3,3.61,2.89,2.89,0,*70
1505235739.7,42844,16.69,73200.8,3.61,2.89,2.89,0,*77
1505235740.96,42845,16.69,73202.5,3.61,2.89,2.89,0,*76
1505235742.21,42846,16.69,73206.0,3.61,2.81,2.81,0,*75
1505235743.47,42847,16.69,73204.0,3.61,2.81,2.89,0,*7C
1505235744.69,42848,16.69,73204.3,3.59,2.77,2.85,0,*7D
1505235745.91,42849,16.69,73204.8,3.59,2.77,2.85,0,*7C
1505235747.18,42850,16.69,73206.3,3.57,2.81,2.81,0,*77
1505235748.4,42851,16.69,73206.5,3.59,2.77,2.77,0,*78
1505235749.63,42852,16.69,73202.0,3.59,2.85,2.85,0,*7B
1505235750.85,42853,16.69,73200.5,3.59,2.85,2.77,0,*77
1505235752.11,42854,16.69,73202.8,3.57,2.81,2.77,0,*7A
1505235753.33,42855,16.69,73202.8,3.59,2.85,2.85,0,*7C
1505235754.55,42856,16.69,73200.3,3.59,2.85,2.85,0,*7F
1505235755.78,42857,16.69,73202.0,3.59,2.85,2.85,0,*7E
1505235757.0,42858,16.69,73200.5,3.59,2.85,2.85,0,*71
1505235758.22,42859,16.69,73202.5,3.59,2.85,2.85,0,*70
1505235759.44,42860,16.69,73200.8,3.59,2.85,2.85,0,*7A
1505235760.7,42861,16.69,73202.0,3.57,2.81,2.81,0,*75
1505235761.93,42862,16.69,73200.0,3.59,2.85,2.89,0,*74
1505235763.16,42863,16.69,73200.0,3.59,2.85,2.89,0,*75
1505235764.39,42864,16.69,73200.3,3.59,2.85,2.89,0,*72
1505235765.61,42865,16.69,73200.3,3.59,2.73,2.85,0,*76
1505235766.83,42866,16.69,73200.8,3.59,2.85,2.89,0,*70
1505235768.09,42867,16.69,73200.5,3.57,2.81,2.85,0,*77
1505235769.32,42868,16.69,73202.5,3.59,2.85,2.89,0,*7E
1505235770.55,42869,16.69,73202.5,3.59,2.85,2.89,0,*7F
1505235771.77,42870,16.69,73200.0,3.59,2.85,2.85,0,*7B
1505235772.99,42871,16.69,73202.0,3.59,2.85,2.85,0,*7A
1505235774.25,42872,16.69,73200.3,3.57,2.81,2.81,0,*77
1505235775.47,42873,16.69,73202.3,3.59,2.85,2.85,0,*78
1505235776.73,42874,16.69,73200.3,3.57,2.81,2.73,0,*7C
1505235777.99,42875,16.69,73204.3,3.57,2.81,2.81,0,*70
1505235779.26,42876,16.69,73202.0,3.57,2.81,2.81,0,*73
1505235780.48,42877,16.69,73200.0,3.59,2.85,2.85,0,*7C
1505235781.7,42878,16.69,73206.0,3.59,2.85,2.85,0,*73
1505235782.96,42879,16.69,73202.8,3.57,2.81,2.85,0,*78
1505235784.21,42880,16.69,73202.3,3.57,2.73,2.73,0,*7A
1505235785.47,42881,16.69,73202.3,3.57,2.81,2.81,0,*7B
1505235786.73,42882,16.69,73200.0,3.57,2.81,2.73,0,*75
1505235787.95,42883,16.69,73204.5,3.59,2.85,2.85,0,*77
1505235789.22,42884,16.69,73204.3,3.57,2.81,2.81,0,*7E
1505235790.47,42885,16.69,73200.0,3.57,2.73,2.81,0,*72
1505235791.73,42886,16.69,73204.5,3.57,2.81,2.81,0,*7C
1505235793.0,42887,16.69,73202.0,3.57,2.81,2.81,0,*7D
1505235794.22,42888,16.69,73200.0,3.59,2.85,2.85,0,*7C
1505235795.48,42889,16.69,73202.0,3.57,2.81,2.81,0,*73
1505235796.7,42890,16.69,73200.8,3.59,2.85,2.85,0,*75
1505235797.96,42891,16.69,73204.3,3.57,2.81,2.85,0,*7E
1505235799.22,42892,16.69,73202.0,3.57,2.81,2.85,0,*7D
1505235800.47,42893,16.69,73206.0,3.57,2.81,2.85,0,*7C
1505235801.69,42894,16.69,73202.0,3.59,2.85,2.85,0,*71
1505235802.95,42895,16.69,73200.0,3.57,2.73,2.81,0,*73
1505235804.21,42896,16.69,73204.3,3.57,2.81,2.81,0,*7D
1505235805.47,42897,16.69,73200.8,3.57,2.81,2.81,0,*7C
1505235806.74,42898,16.69,73202.0,3.57,2.81,2.81,0,*73
1505235808.0,42899,16.69,73200.8,3.57,2.81,2.81,0,*72
1505235809.26,42900,16.69,73200.8,3.57,2.81,2.81,0,*73
1505235810.52,42901,16.69,73204.8,3.57,2.81,2.73,0,*7F
1505235811.78,42902,16.69,73202.5,3.57,2.81,2.73,0,*7C
1505235813.04,42903,16.69,73200.5,3.57,2.81,2.81,0,*70
1505235814.3,42904,16.69,73200.3,3.57,2.81,2.73,0,*7A
1505235815.56,42905,16.69,73200.0,3.57,2.81,2.81,0,*76
1505235816.82,42906,16.69,73204.3,3.57,2.85,2.81,0,*71
1505235818.08,42907,16.69,73206.5,3.57,2.85,2.81,0,*70
1505235819.31,42908,16.69,73202.0,3.55,2.81,2.73,0,*74
1505235820.58,42909,16.69,73200.8,3.57,2.81,2.81,0,*7A
1505235821.84,42910,16.69,73200.3,3.57,2.81,2.81,0,*72
1505235823.1,42911,16.69,73200.8,3.57,2.81,2.81,0,*73
1505235824.36,42912,16.69,73202.8,3.57,2.81,2.85,0,*74
1505235825.59,42913,16.69,73202.8,3.55,2.81,2.85,0,*77
1505235826.81,42914,16.69,73202.8,3.55,2.85,2.85,0,*74
1505235828.04,42915,16.69,73202.8,3.55,2.85,2.85,0,*75
1505235829.27,42916,16.69,73200.3,3.55,2.85,2.81,0,*72
1505235830.5,42917,16.69,73206.0,3.55,2.81,2.81,0,*77
1505235831.77,42918,16.69,73202.5,3.57,2.81,2.81,0,*7A
1505235833.03,42919,16.69,73202.3,3.57,2.81,2.81,0,*7B
1505235834.29,42920,16.69,73204.3,3.57,2.81,2.73,0,*7C
1505235835.54,42921,16.69,73202.3,3.57,2.69,2.69,0,*70
1505235836.76,42922,16.69,73202.5,3.55,2.69,2.69,0,*71
1505235837.99,42923,16.69,73202.0,3.55,2.73,2.73,0,*70
1505235839.24,42924,16.69,73202.8,3.53,2.69,2.69,0,*71
1505235840.47,42925,16.69,73202.0,3.55,2.69,2.73,0,*7D
1505235841.7,42926,16.69,73202.8,3.55,2.77,2.73,0,*71
1505235842.93,42927,16.69,73200.8,3.55,2.69,2.81,0,*72
1505235844.16,42928,16.69,73202.5,3.55,2.73,2.73,0,*7B
1505235845.39,42929,16.69,73202.3,3.55,2.73,2.73,0,*7A
1505235846.62,42930,16.69,73200.8,3.55,2.81,2.73,0,*7F
1505235847.88,42931,16.69,73198.8,3.53,2.77,2.81,0,*7C
1505235849.11,42932,16.69,73200.0,3.55,2.81,2.81,0,*70
1505235850.34,42933,16.69,73202.3,3.55,2.73,2.81,0,*7C
1505235851.58,42934,16.69,73200.0,3.55,2.81,2.81,0,*76
1505235852.84,42935,16.69,73200.5,3.53,2.77,2.77,0,*71
1505235854.07,42936,16.69,73198.8,3.55,2.81,2.81,0,*74
1505235855.3,42937,16.69,73202.0,3.55,2.73,2.81,0,*78
1505235856.56,42938,16.69,73200.8,3.53,2.77,2.77,0,*7C
1505235857.82,42939,16.69,73202.0,3.53,2.77,2.77,0,*7D
1505235859.07,42940,16.69,73204.3,3.53,2.77,2.77,0,*73
1505235860.31,42941,16.69,73202.0,3.55,2.81,2.81,0,*74
1505235861.56,42942,16.69,73200.8,3.53,2.77,2.77,0,*71
1505235862.82,42943,16.69,73202.0,3.53,2.77,2.77,0,*70
1505235864.08,42944,16.69,73200.8,3.53,2.77,2.77,0,*77
1505235865.33,42945,16.69,73200.8,3.53,2.69,2.77,0,*79
1505235866.59,42946,16.69,73202.8,3.53,2.77,2.77,0,*75
1505235867.85,42947,16.69,73202.5,3.53,2.77,2.77,0,*74
1505235869.1,42948,16.69,73200.3,3.53,2.77,2.77,0,*7B
1505235870.34,42949,16.69,73206.5,3.55,2.81,2.81,0,*7C
1505235871.59,42950,16.69,73200.3,3.53,2.77,2.77,0,*72
1505235872.85,42951,16.69,73202.3,3.53,2.77,2.77,0,*73
1505235874.11,42952,16.69,73206.0,3.53,2.77,2.77,0,*70
1505235875.36,42953,16.69,73200.8,3.53,2.77,2.77,0,*71
1505235876.62,42954,16.69,73202.5,3.53,2.77,2.77,0,*76
1505235877.88,42955,16.69,73206.0,3.53,2.77,2.77,0,*77
1505235879.13,42956,16.69,73204.0,3.53,2.77,2.77,0,*74
1505235880.39,42957,16.69,73202.5,3.53,2.77,2.69,0,*7A
1505235881.64,42958,16.69,73200.8,3.53,2.69,2.77,0,*75
1505235882.9,42959,16.69,73202.3,3.53,2.77,2.77,0,*7B
1505235884.16,42960,16.69,73200.3,3.53,2.77,2.81,0,*78
1505235885.41,42961,16.69,73196.8,3.53,2.77,2.77,0,*70
1505235886.67,42962,16.69,73202.3,3.53,2.77,2.77,0,*73
1505235887.91,42963,16.69,73202.8,3.55,2.81,2.81,0,*74
1505235889.16,42964,16.69,73200.8,3.53,2.77,2.77,0,*75
1505235890.42,42965,16.69,73202.5,3.53,2.77,2.77,0,*74
1505235891.65,42966,16.69,73200.3,3.51,2.77,2.77,0,*75
1505235892.9,42967,16.69,73204.3,3.53,2.85,2.77,0,*7B
1505235894.16,42968,16.69,73200.3,3.53,2.81,2.77,0,*70
1505235895.42,42969,16.69,73202.5,3.53,2.77,2.77,0,*78
1505235896.68,42970,16.69,73202.8,3.53,2.77,2.77,0,*70
1505235897.93,42971,16.69,73202.3,3.53,2.69,2.77,0,*7E
1505235899.19,42972,16.69,73202.8,3.53,2.77,2.69,0,*7D
1505235900.44,42973,16.69,73198.5,3.53,2.69,2.81,0,*75
1505235901.7,42974,16.69,73206.3,3.53,2.77,2.77,0,*74
1505235902.96,42975,16.69,73198.5,3.53,2.77,2.77,0,*75
1505235904.21,42976,16.69,73200.3,3.53,2.77,2.77,0,*76
1505235905.47,42977,16.69,73202.0,3.53,2.77,2.77,0,*77
1505235906.72,42978,16.69,73202.0,3.53,2.77,2.69,0,*77
1505235907.98,42979,16.69,73200.8,3.53,2.69,2.77,0,*76
1505235909.23,42980,16.69,73202.0,3.53,2.77,2.77,0,*7F
1505235910.49,42981,16.69,73202.8,3.53,2.77,2.77,0,*7E
1505235911.72,42982,16.69,73204.5,3.51,2.77,2.77,0,*7F
1505235912.97,42983,16.69,73200.3,3.49,2.73,2.73,0,*77
1505235914.2,42984,16.69,73200.3,3.51,2.77,2.77,0,*79
1505235915.44,42985,16.69,73202.0,3.51,2.77,2.77,0,*78
1505235916.67,42986,16.69,73202.8,3.51,2.77,2.77,0,*7B
1505235917.9,42987,16.69,73202.8,3.51,2.77,2.81,0,*73
1505235919.13,42988,16.69,73202.5,3.51,2.77,2.81,0,*7C
1505235920.36,42989,16.69,73204.5,3.51,2.77,2.77,0,*74
1505235921.59,42990,16.69,73200.3,3.51,2.77,2.77,0,*7C
1505235922.82,42991,16.69,73204.0,3.51,2.77,2.77,0,*7D
1505235924.05,42992,16.69,73202.3,3.51,2.77,2.77,0,*7E
1505235925.28,42993,16.69,73202.8,3.51,2.77,2.77,0,*7F
1505235926.51,42994,16.69,73202.5,3.51,2.69,2.77,0,*77
1505235927.74,42995,16.69,73204.3,3.51,2.77,2.69,0,*76
1505235928.95,42996,16.69,73202.0,3.49,2.65,2.65,0,*73
1505235930.18,42997,16.69,73200.8,3.49,2.73,2.65,0,*75
1505235931.41,42998,16.69,73202.0,3.51,2.77,2.77,0,*74
1505235932.64,42999,16.69,73202.8,3.51,2.77,2.77,0,*75
1505235933.9,43000,16.69,73200.8,3.49,2.73,2.73,0,*74
1505235935.15,43001,16.69,73200.3,3.49,2.73,2.73,0,*75
1505235936.4,43002,16.69,73202.0,3.49,2.73,2.73,0,*76
1505235937.63,43003,16.69,73202.0,3.51,2.77,2.77,0,*7E
1505235938.86,43004,16.69,73202.3,3.51,2.69,2.69,0,*79
1505235940.11,43005,16.69,73200.5,3.49,2.73,2.73,0,*71
1505235941.34,43006,16.69,73200.3,3.51,2.77,2.77,0,*7B
1505235942.57,43007,16.69,73202.0,3.51,2.77,2.69,0,*75
1505235943.82,43008,16.69,73202.5,3.49,2.73,2.73,0,*7C
1505235945.05,43009,16.69,73200.3,3.51,2.77,2.77,0,*74
1505235946.31,43010,16.69,73200.3,3.49,2.73,2.73,0,*75
1505235947.56,43011,16.69,73206.5,3.49,2.73,2.73,0,*74
1505235948.81,43012,16.69,73204.3,3.49,2.73,2.73,0,*77
1505235950.04,43013,16.69,73202.3,3.51,2.77,2.77,0,*7F
1505235951.28,43014,16.69,73202.0,3.51,2.77,2.77,0,*78
1505235952.51,43015,16.69,73202.0,3.49,2.73,2.65,0,*77
1505235953.73,43016,16.69,73200.0,3.51,2.69,2.69,0,*7A
1505235954.96,43017,16.69,73202.5,3.51,2.77,2.69,0,*74
1505235956.19,43018,16.69,73202.8,3.51,2.77,2.69,0,*7B
1505235957.42,43019,16.69,73200.0,3.51,2.77,2.77,0,*75
1505235958.67,43020,16.69,73202.0,3.49,2.73,2.73,0,*76
1505235959.92,43021,16.69,73200.8,3.49,2.73,2.73,0,*77
1505235961.15,43022,16.69,73200.8,3.51,2.77,2.77,0,*7D
1505235962.41,43023,16.69,73200.8,3.49,2.73,2.73,0,*75
1505235963.66,43024,16.69,73202.5,3.49,2.73,2.73,0,*72
1505235964.91,43025,16.69,73202.8,3.49,2.73,2.73,0,*73
1505235966.17,43026,16.69,73202.8,3.49,2.73,2.73,0,*70
1505235967.43,43027,16.69,73202.0,3.49,2.81,2.77,0,*78
1505235968.66,43028,16.69,73200.8,3.51,2.81,2.77,0,*7E
1505235969.89,43029,16.69,73202.8,3.51,2.81,2.77,0,*7F
1505235971.15,43030,16.69,73202.5,3.49,2.77,2.77,0,*77
1505235972.41,43031,16.69,73200.5,3.49,2.77,2.77,0,*76
1505235973.66,43032,16.69,73202.8,3.49,2.77,2.77,0,*75
1505235974.92,43033,16.69,73202.0,3.49,2.73,2.73,0,*74
1505235976.15,43034,16.69,73202.5,3.51,2.77,2.81,0,*73
1505235977.4,43035,16.69,73200.8,3.49,2.73,2.73,0,*72
1505235978.63,43036,16.69,73206.8,3.51,2.77,2.69,0,*77
1505235979.88,43037,16.69,73202.8,3.49,2.73,2.73,0,*70
1505235981.14,43038,16.69,73202.0,3.49,2.73,2.73,0,*7F
1505235982.39,43039,16.69,73204.3,3.45,2.69,2.69,0,*72
1505235983.62,43040,16.69,73204.5,3.49,2.73,2.65,0,*77
1505235984.87,43041,16.69,73206.0,3.49,2.73,2.73,0,*71
1505235986.13,43042,16.69,73202.5,3.49,2.73,2.73,0,*72
1505235987.38,43043,16.69,73204.5,3.49,2.73,2.73,0,*73
1505235988.63,43044,16.69,73202.8,3.49,2.73,2.73,0,*74
1505235989.88,43045,16.69,73204.5,3.45,2.69,2.69,0,*79
1505235991.14,43046,16.69,73202.5,3.49,2.73,2.73,0,*76
1505235992.39,43047,16.69,73202.0,3.49,2.73,2.73,0,*77
1505235993.63,43048,16.69,73204.8,3.49,2.65,2.73,0,*7F
1505235994.88,43049,16.69,73204.5,3.49,2.73,2.73,0,*79
1505235996.13,43050,16.69,73206.5,3.49,2.73,2.73,0,*71
1505235997.39,43051,16.69,73204.5,3.49,2.77,2.73,0,*74
1505235998.64,43052,16.69,73202.8,3.49,2.73,2.73,0,*73
1505235999.9,43053,16.69,73202.0,3.49,2.73,2.73,0,*72
1505236001.15,43054,16.69,73208.5,3.49,2.73,2.73,0,*75
1505236002.36,43055,16.69,73202.3,3.49,2.61,2.65,0,*70
1505236003.58,43056,16.69,73204.0,3.49,2.65,2.65,0,*77
1505236004.79,43057,16.69,73206.3,3.49,2.65,2.65,0,*76
1505236006.04,43058,16.69,73200.3,3.49,2.73,2.73,0,*79
1505236007.25,43059,16.69,73206.8,3.45,2.61,2.61,0,*74
1505236008.48,43060,16.69,73204.3,3.45,2.61,2.69,0,*76
1505236009.71,43061,16.63,73202.0,3.45,2.69,2.61,0,*77
1505236010.96,43062,16.69,73202.5,3.45,2.69,2.69,0,*7C
1505236012.19,43063,16.69,73206.3,3.43,2.69,2.69,0,*7B
1505236013.44,43064,16.69,73204.3,3.45,2.69,2.69,0,*7A
1505236014.69,43065,16.69,73204.3,3.45,2.69,2.69,0,*7B
1505236015.94,43066,16.69,73204.5,3.45,2.69,2.69,0,*78
1505236017.19,43067,16.69,73204.5,3.45,2.69,2.69,0,*79
1505236018.43,43068,16.69,73204.3,3.45,2.69,2.69,0,*76
1505236019.68,43069,16.69,73202.3,3.45,2.73,2.69,0,*7C
1505236020.93,43070,16.69,73204.0,3.45,2.73,2.73,0,*7F
1505236022.18,43071,16.69,73204.8,3.45,2.73,2.73,0,*7E
1505236023.43,43072,16.69,73206.0,3.45,2.73,2.73,0,*7D
1505236024.68,43073,16.69,73204.5,3.45,2.73,2.73,0,*7C
1505236025.93,43074,16.69,73206.5,3.45,2.73,2.73,0,*7B
1505236027.19,43075,16.69,73204.8,3.45,2.77,2.73,0,*7E
1505236028.44,43076,16.69,73204.5,3.45,2.73,2.73,0,*79
1505236029.69,43077,16.69,73206.3,3.45,2.73,2.73,0,*78
1505236030.94,43078,16.69,73204.8,3.45,2.73,2.73,0,*77
1505236032.19,43079,16.69,73206.3,3.45,2.69,2.69,0,*76
1505236033.44,43080,16.69,73206.8,3.45,2.69,2.69,0,*70
1505236034.69,43081,16.69,73206.5,3.45,2.69,2.69,0,*71
1505236035.94,43082,16.69,73206.5,3.45,2.69,2.69,0,*72
1505236037.19,43083,16.69,73206.5,3.45,2.69,2.69,0,*73
1505236038.41,43084,16.69,73204.5,3.43,2.69,2.69,0,*72
1505236039.66,43085,16.69,73204.5,3.45,2.69,2.69,0,*75
1505236040.91,43086,16.69,73204.8,3.45,2.69,2.69,0,*76
1505236042.16,43087,16.69,73206.5,3.45,2.69,2.69,0,*77
1505236043.41,43088,16.69,73206.5,3.45,2.69,2.69,0,*78
1505236044.66,43089,16.69,73204.5,3.45,2.69,2.69,0,*79
1505236045.89,43090,16.69,73202.8,3.45,2.69,2.61,0,*79
1505236047.12,43091,16.69,73204.5,3.45,2.69,2.61,0,*78
1505236048.35,43092,16.69,73204.3,3.45,2.69,2.61,0,*7B
1505236049.58,43093,16.69,73206.3,3.43,2.69,2.69,0,*74
1505236050.8,43094,16.69,73206.0,3.45,2.61,2.69,0,*7D
1505236052.01,43095,16.69,73206.8,3.43,2.69,2.61,0,*7A
1505236053.26,43096,16.69,73206.5,3.45,2.69,2.69,0,*77
1505236054.51,43097,16.69,73208.5,3.45,2.69,2.69,0,*76
1505236055.77,43098,16.69,73204.3,3.45,2.51,2.59,0,*71
1505236057.03,43099,16.69,73206.3,3.45,2.59,2.59,0,*78
1505236058.24,43100,16.69,73204.5,3.43,2.59,2.61,0,*74
1505236059.46,43101,16.69,73206.8,3.45,2.61,2.69,0,*70
1505236060.69,43102,16.69,73208.5,3.45,2.61,2.69,0,*73
1505236061.87,43103,16.69,73206.3,3.43,2.61,2.61,0,*7C
1505236063.08,43104,16.69,73206.0,3.43,2.69,2.61,0,*73
1505236064.28,43105,16.69,73204.0,3.43,2.61,2.69,0,*72
1505236065.51,43106,16.69,73204.8,3.43,2.69,2.69,0,*79
1505236066.71,43107,16.69,73206.5,3.43,2.61,2.69,0,*70
1505236067.91,43108,16.69,73202.8,3.43,2.61,2.69,0,*7F
1505236069.09,43109,16.69,73204.8,3.43,2.61,2.61,0,*76
1505236070.31,43110,16.69,73204.5,3.43,2.69,2.69,0,*7E
1505236071.51,43111,16.69,73206.0,3.43,2.61,2.69,0,*77
1505236072.72,43112,16.69,73208.3,3.43,2.69,2.61,0,*74
1505236073.97,43113,16.69,73204.0,3.45,2.69,2.69,0,*7B
1505236075.18,43114,16.69,73204.5,3.43,2.69,2.61,0,*72
1505236076.4,43115,16.69,73208.0,3.43,2.69,2.69,0,*7B
1505236077.58,43116,16.69,73204.3,3.43,2.61,2.61,0,*78
1505236078.79,43117,16.69,73206.5,3.45,2.61,2.61,0,*7F
1505236080.02,43118,16.69,73206.0,3.45,2.61,2.69,0,*78
1505236081.23,43119,16.69,73208.8,3.43,2.69,2.61,0,*7F
1505236082.43,43120,16.69,73208.3,3.43,2.61,2.69,0,*75
1505236083.69,43121,16.69,73208.8,3.41,2.59,2.59,0,*7E
1505236084.91,43122,16.69,73206.5,3.43,2.69,2.69,0,*7F
1505236086.15,43123,16.69,73206.5,3.41,2.59,2.65,0,*73
1505236087.39,43124,16.69,73206.5,3.41,2.59,2.65,0,*74
1505236088.63,43125,16.69,73206.0,3.41,2.65,2.59,0,*75
1505236089.89,43126,16.69,73206.8,3.41,2.59,2.59,0,*79
1505236091.14,43127,16.69,73210.5,3.41,2.59,2.55,0,*74
1505236092.4,43128,16.69,73204.8,3.41,2.59,2.59,0,*77
1505236093.64,43129,16.69,73204.8,3.41,2.59,2.65,0,*79
1505236094.86,43130,16.69,73208.8,3.41,2.65,2.65,0,*7E
1505236096.07,43131,16.69,73204.0,3.41,2.65,2.65,0,*7F
1505236097.33,43132,16.69,73208.5,3.41,2.59,2.59,0,*7C
1505236098.52,43133,16.69,73210.0,3.39,2.65,2.65,0,*72
1505236099.73,43134,16.69,73206.5,3.41,2.65,2.65,0,*7A
1505236100.94,43135,16.69,73204.0,3.41,2.65,2.65,0,*7B
1505236102.16,43136,16.69,73210.0,3.41,2.65,2.65,0,*78
1505236103.34,43137,16.69,73208.0,3.39,2.65,2.65,0,*76
1505236104.58,43138,16.69,73210.0,3.41,2.65,2.59,0,*79
1505236105.79,43139,16.69,73208.8,3.41,2.65,2.65,0,*77
1505236107.01,43140,16.69,73206.0,3.41,2.65,2.65,0,*79
1505236108.22,43141,16.69,73210.8,3.41,2.65,2.65,0,*78
1505236109.43,43142,16.69,73208.0,3.39,2.59,2.65,0,*7B
1505236110.67,43143,16.69,73210.3,3.41,2.59,2.65,0,*75
1505236111.93,43144,16.69,73206.5,3.41,2.59,2.59,0,*7D
1505236113.14,43145,16.69,73208.5,3.39,2.65,2.59,0,*7C
1505236114.32,43146,16.69,73206.8,3.39,2.65,2.65,0,*70
1505236115.51,43147,16.69,73210.8,3.39,2.65,2.65,0,*71
1505236116.74,43148,16.69,73210.0,3.41,2.59,2.65,0,*7E
1505236118.0,43149,16.69,73210.5,3.41,2.69,2.69,0,*70
1505236119.2,43150,16.69,73210.0,3.39,2.69,2.65,0,*7B
1505236120.41,43151,16.69,73208.0,3.39,2.69,2.65,0,*7A
1505236121.61,43152,16.69,73208.0,3.39,2.69,2.65,0,*79
1505236122.84,43153,16.69,73210.3,3.41,2.69,2.65,0,*77
1505236124.03,43154,16.69,73210.0,3.39,2.65,2.65,0,*73
1505236125.26,43155,16.69,73208.5,3.41,2.65,2.59,0,*72
1505236126.45,43156,16.69,73210.0,3.39,2.65,2.65,0,*71
1505236127.66,43157,16.69,73210.0,3.41,2.65,2.65,0,*7F
1505236128.85,43158,16.69,73208.5,3.39,2.65,2.65,0,*7F
1505236130.03,43159,16.69,73212.0,3.39,2.65,2.65,0,*7E
1505236131.27,43160,16.69,73210.3,3.41,2.65,2.59,0,*74
1505236132.48,43161,16.69,73212.5,3.41,2.65,2.65,0,*7A
1505236133.69,43162,16.69,73208.3,3.39,2.65,2.59,0,*79
1505236134.92,43163,16.69,73212.0,3.39,2.55,2.59,0,*7B
1505236136.17,43164,16.69,73210.3,3.41,2.55,2.55,0,*7F
1505236137.4,43165,16.69,73210.5,3.39,2.55,2.59,0,*7D